Location: Ladysmith
(45.4630°N, 91.1040°W)
Time: 18:43:27
(UTC-05:00)

Amateur Radio Satellites - All Passes

Search period start: 23 April 2017 18:13
Search period end: 24 April 2017 18:13
Location: Ladysmith, 45.4630°N, 91.1040°W

Satellite Date Start Highest point End Downlink Frequencies (MHz)
Time Altitude Azimuth
KKS-1 23 Apr 18:19:03 18:23:24 53° 289° (WNW) 18:27:42 437.445
NUDT-PHONESAT 23 Apr 18:19:31 18:23:08 62° 75° (ENE) 18:26:47 437.300
CUTE-I 23 Apr 18:20:36 18:25:57 76° 73° (ENE) 18:31:18 437.470
CUBESAT XI-V 23 Apr 18:22:05 18:26:41 54° 288° (WNW) 18:31:16 437.345
CUTE 1.7 + AOD 2 23 Apr 18:28:43 18:31:15 16° 62° (ENE) 18:33:48 437.475
YUBILEINY 23 Apr 18:33:53 18:39:24 19° 284° (WNW) 18:44:56 435.215
XW-2D 23 Apr 18:44:24 18:48:01 48° 261° (W) 18:51:40 145.860 - 145.880
DOVE 4 23 Apr 18:49:01 18:53:59 40° 263° (W) 18:58:56 437.250
XW-2B 23 Apr 18:51:19 18:54:52 41° 261° (W) 18:58:28 145.730 - 145.750
SEEDS 23 Apr 18:55:01 18:57:59 19° 64° (ENE) 19:00:59 437.485
CUBEBUG 2 23 Apr 18:57:27 19:00:05 16° 63° (ENE) 19:02:40 437.445
LilacSat-2 23 Apr 18:58:21 19:01:46 33° 263° (W) 19:05:11 437.200
STARS 23 Apr 19:00:56 19:05:06 43° 290° (WNW) 19:09:13 437.465
HO-68 23 Apr 19:02:28 19:09:23 56° 66° (ENE) 19:16:21 435.675
XW-2C 23 Apr 19:03:22 19:06:42 30° 264° (W) 19:10:01 145.795 - 145.815
KAITUO 1B 23 Apr 19:09:43 19:13:01 31° 263° (W) 19:16:21 145.475/437.950
STRAND 1 23 Apr 19:10:56 19:13:06 13° 88° (E) 19:15:14 437.568
RS-15 23 Apr 19:16:00 19:26:02 32° 257° (WSW) 19:35:44 29.354- 29.394
XW-2A 23 Apr 19:24:54 19:28:13 59° 74° (ENE) 19:31:31 145.665 - 145.685
XW-2F 23 Apr 19:32:51 19:35:06 15° 269° (W) 19:37:21 145.980 - 146.000
M-CUBED/EXP-1 PRIME 23 Apr 19:41:10 19:43:52 16° 95° (E) 19:46:26 437.505
ZACube-1 23 Apr 19:54:31 19:57:41 21° 65° (ENE) 20:00:50 437.345
CUTE 1.7 + AOD 2 23 Apr 20:02:31 20:06:38 56° 260° (W) 20:10:49 437.475
AO-73 23 Apr 20:03:18 20:06:38 23° 66° (ENE) 20:09:56 145.935
CUTE-I 23 Apr 20:03:29 20:06:35 15° 271° (W) 20:09:42 437.470
AAUSAT CUBESAT 2 23 Apr 20:12:06 20:16:10 59° 74° (ENE) 20:20:17 437.432
O/OREOS (USA 219) 23 Apr 20:20:33 20:24:44 33° 57° (ENE) 20:28:51 437.305
Oscar 11 23 Apr 20:22:35 20:26:23 31° 68° (ENE) 20:30:11 .
UWE-3 23 Apr 20:26:04 20:30:22 75° 75° (ENE) 20:34:35 435.000/436.395/437.385
SEEDS 23 Apr 20:29:24 20:33:22 43° 262° (W) 20:37:24 437.485
CUBEBUG 2 23 Apr 20:31:56 20:36:18 58° 260° (W) 20:40:32 437.445
NO-84 23 Apr 20:40:21 20:43:17 23° 133° (SE) 20:46:00 435.350 FM
STRAND 1 23 Apr 20:47:49 20:52:56 86° 286° (WNW) 20:58:03 437.568
HO-68 23 Apr 20:51:13 20:57:26 32° 265° (W) 21:03:42 435.675
M-CUBED/EXP-1 PRIME 23 Apr 21:14:25 21:18:40 52° 294° (WNW) 21:22:36 437.505
AO-85 23 Apr 21:22:46 21:26:03 24° 42° (NE) 21:29:23 145.980
OBJECT BX 23 Apr 21:25:08 21:28:20 30° 70° (ENE) 21:31:33 145.990 - 145.960
DELFI C3 23 Apr 21:27:14 21:31:01 44° 72° (ENE) 21:34:51 145.870
ZACube-1 23 Apr 21:29:49 21:33:45 38° 262° (W) 21:37:41 437.345
AO-73 23 Apr 21:38:53 21:42:43 34° 263° (W) 21:46:31 145.935
AAUSAT CUBESAT 2 23 Apr 21:50:02 21:52:01 13° 271° (W) 21:54:01 437.432
Oscar 11 23 Apr 21:58:55 22:02:31 26° 266° (W) 22:06:10 .
O/OREOS (USA 219) 23 Apr 22:00:05 22:04:04 30° 256° (WSW) 22:08:01 437.305
PRISM 23 Apr 22:06:17 22:09:37 23° 94° (E) 22:12:54 437.425
UWE-3 23 Apr 22:06:18 22:07:19 11° 272° (W) 22:08:20 435.000/436.395/437.385
BEESAT 2 23 Apr 22:12:15 22:12:40 10° 28° (NNE) 22:13:05 435.950
FO-29 23 Apr 22:15:35 22:18:44 16° 90° (E) 22:21:54 435.910
NO-84 23 Apr 22:17:19 22:20:40 48° 328° (NNW) 22:23:46 435.350 FM
BEESAT 3 23 Apr 22:19:18 22:22:15 19° 39° (NE) 22:25:12 437.485
STRAND 1 23 Apr 22:28:57 22:31:21 13° 304° (NW) 22:33:45 437.568
LO-87 23 Apr 22:40:02 22:43:18 32° 70° (ENE) 22:46:36 145.935 - 145.965
ESTCUBE 1 23 Apr 22:50:54 22:54:46 29° 67° (ENE) 22:58:41 437.505/2401.250
TIGRISAT 23 Apr 22:52:32 22:56:35 41° 98° (E) 23:00:38 435.000
OBJECT BX 23 Apr 22:59:23 23:02:05 19° 267° (W) 23:04:47 145.990 - 145.960
AO-85 23 Apr 23:02:49 23:06:33 41° 241° (WSW) 23:10:27 145.980
DELFI C3 23 Apr 23:03:30 23:06:02 16° 269° (W) 23:08:35 145.870
SPROUT 23 Apr 23:12:17 23:14:24 14° 60° (ENE) 23:16:31 437.525
UNISAT 6 23 Apr 23:12:36 23:16:53 74° 103° (ESE) 23:21:11 437.425
VELOX 1 23 Apr 23:19:33 23:22:37 18° 62° (ENE) 23:25:41 145.980
50 SAT 23 Apr 23:37:45 23:39:07 12° 63° (ENE) 23:40:31 437.505
PRISM 23 Apr 23:41:11 23:44:58 34° 292° (WNW) 23:48:42 437.425
BEESAT 2 23 Apr 23:47:31 23:51:27 45° 49° (NE) 23:55:21 435.950
BEESAT 3 23 Apr 23:56:14 00:00:14 63° 238° (WSW) 00:04:10 437.485
NO-84 23 Apr 23:56:38 23:58:45 16° 348° (NNW) 00:00:47 435.350 FM
UKube-1 23 Apr 23:57:14 23:59:12 13° 59° (ENE) 00:01:11 .
FO-29 23 Apr 23:59:14 00:04:22 67° 288° (WNW) 00:09:42 435.910
POLYITAN 1 24 Apr 00:05:12 00:08:24 21° 93° (E) 00:11:35 437.675
QB50P2 24 Apr 00:11:21 00:14:55 26° 95° (E) 00:18:27 145.880/145.840
LO-87 24 Apr 00:14:16 00:16:50 18° 267° (W) 00:19:26 145.935 - 145.965
DX 1 24 Apr 00:21:15 00:25:04 30° 67° (ENE) 00:28:54 434.975-435.025
ESTCUBE 1 24 Apr 00:27:30 00:31:30 31° 264° (W) 00:35:33 437.505/2401.250
TIGRISAT 24 Apr 00:29:52 00:33:01 21° 295° (WNW) 00:36:11 435.000
AIST 2D 24 Apr 00:34:44 00:38:16 89° 277° (W) 00:41:47 435.315
NANOSAT C BR1 24 Apr 00:36:21 00:40:18 40° 98° (E) 00:44:15 145.865
SPROUT 24 Apr 00:45:30 00:49:46 70° 258° (WSW) 00:54:03 437.525
BUGSAT 1 24 Apr 00:48:39 00:51:09 16° 92° (E) 00:53:38 437.445
UNISAT 6 24 Apr 00:51:09 00:53:02 13° 300° (WNW) 00:54:55 437.425
VELOX 1 24 Apr 00:54:20 00:58:41 53° 260° (W) 01:03:04 145.980
EO-79 24 Apr 01:01:53 01:06:06 85° 100° (E) 01:10:18 145.935-145.965
DUCHIFAT 1 24 Apr 01:07:49 01:12:01 82° 104° (ESE) 01:16:10 145.980
50 SAT 24 Apr 01:08:14 01:11:38 52° 260° (W) 01:15:05 437.505
Oscar 19 24 Apr 01:14:01 01:16:14 13° 87° (E) 01:18:26 437.125/150
BEESAT 2 24 Apr 01:25:54 01:28:56 20° 247° (WSW) 01:31:57 435.950
UKube-1 24 Apr 01:30:18 01:34:38 77° 258° (WSW) 01:38:59 .
NO-84 24 Apr 01:35:17 01:37:13 15° 10° (N) 01:39:05 435.350 FM
POLYITAN 1 24 Apr 01:40:26 01:44:19 37° 290° (WNW) 01:48:11 437.675
QB50P2 24 Apr 01:47:01 01:50:42 30° 292° (WNW) 01:54:23 145.880/145.840
ITUPSAT 1 24 Apr 01:48:52 01:51:57 17° 60° (ENE) 01:55:02 437.325
DX 1 24 Apr 01:57:23 02:01:12 29° 264° (W) 02:05:03 434.975-435.025
NANOSAT C BR1 24 Apr 02:12:41 02:15:46 20° 296° (WNW) 02:18:51 145.865
BUGSAT 1 24 Apr 02:22:55 02:26:46 45° 289° (WNW) 02:30:35 437.445
Gurwin Techsat 1B 24 Apr 02:27:25 02:32:17 35° 96° (E) 02:37:07 435.225
EO-79 24 Apr 02:40:04 02:41:13 11° 301° (WNW) 02:42:22 145.935-145.965
DUCHIFAT 1 24 Apr 02:45:44 02:47:03 11° 301° (WNW) 02:48:21 145.980
BEESAT 24 Apr 02:46:08 02:50:46 57° 72° (ENE) 02:55:27 436.000
Oscar 19 24 Apr 02:51:00 02:56:15 88° 285° (WNW) 03:01:27 437.125/150
MOZHAYETS 4 24 Apr 03:07:41 03:11:58 42° 70° (ENE) 03:16:17
NO-84 24 Apr 03:12:27 03:15:18 49° 32° (NNE) 03:18:04 435.350 FM
PCSat 24 Apr 03:18:23 03:23:36 52° 115° (ESE) 03:28:52 145.827
ITUPSAT 1 24 Apr 03:24:34 03:29:17 64° 258° (WSW) 03:34:02 437.325
KKS-1 24 Apr 03:43:35 03:46:58 21° 63° (ENE) 03:50:22 437.445
YUBILEINY 24 Apr 03:44:51 03:51:12 23° 78° (ENE) 03:57:32 435.215
CUBESAT XI-V 24 Apr 03:51:01 03:54:40 23° 64° (ENE) 03:58:20 437.345
Gurwin Techsat 1B 24 Apr 04:07:26 04:12:11 34° 294° (WNW) 04:16:56 435.225
AO-7 24 Apr 04:09:02 04:16:50 42° 99° (E) 04:24:36 .
ITAMSAT 1 24 Apr 04:10:03 04:15:03 47° 99° (E) 04:20:01 435.822/435.867
STARS 24 Apr 04:23:51 04:27:23 24° 65° (ENE) 04:30:56 437.465
BEESAT 24 Apr 04:25:46 04:28:55 17° 269° (W) 04:32:05 436.000
Oscar 19 24 Apr 04:32:08 04:34:48 14° 304° (WNW) 04:37:28 437.125/150
MOZHAYETS 4 24 Apr 04:45:50 04:49:19 21° 267° (W) 04:52:48
NO-84 24 Apr 04:50:41 04:52:31 16° 229° (SW) 04:54:19 435.350 FM
PCSat 24 Apr 05:02:30 05:07:16 30° 316° (NW) 05:12:03 145.827
KKS-1 24 Apr 05:18:58 05:23:15 44° 261° (W) 05:27:33 437.445
CUBESAT XI-V 24 Apr 05:27:23 05:31:46 43° 262° (W) 05:36:15 437.345
YUBILEINY 24 Apr 05:38:15 05:46:57 81° 279° (W) 05:55:43 435.215
ITAMSAT 1 24 Apr 05:50:03 05:54:15 26° 297° (WNW) 05:58:26 435.822/435.867
STARS 24 Apr 05:59:26 06:03:32 37° 262° (W) 06:07:40 437.465
AO-7 24 Apr 06:01:49 06:09:43 50° 299° (WNW) 06:17:36 .
XW-2D 24 Apr 06:15:43 06:17:52 14° 91° (E) 06:20:02 145.860 - 145.880
XW-2B 24 Apr 06:22:17 06:24:47 17° 92° (E) 06:27:17 145.730 - 145.750
M-CUBED/EXP-1 PRIME 24 Apr 06:27:23 06:31:30 33° 61° (ENE) 06:35:40 437.505
STRAND 1 24 Apr 06:28:06 06:32:09 24° 63° (ENE) 06:36:13 437.568
LilacSat-2 24 Apr 06:29:22 06:32:20 21° 94° (E) 06:35:19 437.200
XW-2C 24 Apr 06:33:37 06:36:39 22° 94° (E) 06:39:42 145.795 - 145.815
CUTE-I 24 Apr 06:35:56 06:40:18 25° 94° (E) 06:44:37 437.470
KAITUO 1B 24 Apr 06:38:46 06:41:38 20° 94° (E) 06:44:30 145.475/437.950
DOVE 4 24 Apr 06:45:51 06:50:30 51° 99° (E) 06:54:51 437.250
XW-2F 24 Apr 07:00:56 07:04:35 44° 99° (E) 07:08:13 145.980 - 146.000
NUDT-PHONESAT 24 Apr 07:21:26 07:25:08 65° 102° (ESE) 07:28:49 437.300
RS-15 24 Apr 07:28:04 07:38:57 42° 108° (ESE) 07:50:06 29.354- 29.394
SO-50 24 Apr 07:38:27 07:42:58 57° 121° (ESE) 07:47:27 436.795
YUBILEINY 24 Apr 07:39:29 07:45:19 19° 303° (WNW) 07:51:13 435.215
CUTE 1.7 + AOD 2 24 Apr 07:45:34 07:48:53 21° 93° (E) 07:52:10 437.475
XW-2D 24 Apr 07:48:40 07:52:18 45° 288° (WNW) 07:55:57 145.860 - 145.880
XW-2B 24 Apr 07:55:35 07:59:08 39° 289° (WNW) 08:02:42 145.730 - 145.750
AO-7 24 Apr 07:56:45 08:00:33 14° 322° (NW) 08:04:23 .
M-CUBED/EXP-1 PRIME 24 Apr 08:01:42 08:05:50 33° 259° (W) 08:10:03 437.505
LilacSat-2 24 Apr 08:03:16 08:06:40 31° 291° (WNW) 08:10:03 437.200
STRAND 1 24 Apr 08:06:06 08:11:02 48° 261° (W) 08:15:59 437.568
XW-2C 24 Apr 08:07:33 08:10:51 29° 291° (WNW) 08:14:10 145.795 - 145.815
SEEDS 24 Apr 08:10:59 08:14:35 26° 94° (E) 08:18:08 437.485
KAITUO 1B 24 Apr 08:12:21 08:15:41 31° 290° (WNW) 08:19:02 145.475/437.950
HO-68 24 Apr 08:15:04 08:22:00 47° 100° (E) 08:28:52 435.675
UWE-3 24 Apr 08:15:05 08:16:45 12° 89° (E) 08:18:26 435.000/436.395/437.385
CUTE-I 24 Apr 08:15:29 08:20:34 47° 291° (WNW) 08:25:37 437.470
XW-2A 24 Apr 08:17:12 08:20:26 44° 99° (E) 08:23:39 145.665 - 145.685
CUBEBUG 2 24 Apr 08:20:47 08:24:05 23° 94° (E) 08:27:25 437.445
DOVE 4 24 Apr 08:24:22 08:27:46 20° 298° (WNW) 08:31:01 437.250
FO-29 24 Apr 08:32:55 08:34:56 12° 54° (NE) 08:36:53 435.910
XW-2F 24 Apr 08:36:04 08:38:23 16° 296° (WNW) 08:40:43 145.980 - 146.000
UNISAT 6 24 Apr 08:41:11 08:41:35 10° 58° (ENE) 08:41:59 437.425
NUDT-PHONESAT 24 Apr 08:57:25 08:58:32 11° 298° (WNW) 08:59:39 437.300
PRISM 24 Apr 08:57:36 09:00:53 23° 65° (ENE) 09:04:10 437.425
ZACube-1 24 Apr 09:15:25 09:19:11 31° 96° (E) 09:22:58 437.345
SO-50 24 Apr 09:19:58 09:23:44 25° 321° (NW) 09:27:30 436.795
CUTE 1.7 + AOD 2 24 Apr 09:20:51 09:24:50 38° 290° (WNW) 09:28:49 437.475
AO-73 24 Apr 09:23:57 09:27:48 35° 97° (E) 09:31:42 145.935
AAUSAT CUBESAT 2 24 Apr 09:27:07 09:31:21 84° 104° (ESE) 09:35:32 437.432
Tancredo 1 24 Apr 09:28:40 09:31:17 25° 139° (SE) 09:33:55 437.200
ISS 24 Apr 09:29:15 09:31:48 21° 137° (SE) 09:34:22 437.550
RS-15 24 Apr 09:38:44 09:50:51 69° 312° (NW) 10:03:16 29.354- 29.394
Oscar 11 24 Apr 09:42:53 09:47:07 47° 99° (E) 09:51:18 .
SEEDS 24 Apr 09:46:30 09:50:16 31° 291° (WNW) 09:54:02 437.485
UWE-3 24 Apr 09:49:30 09:53:38 65° 286° (WNW) 09:57:49 435.000/436.395/437.385
XW-2A 24 Apr 09:51:25 09:52:49 12° 296° (WNW) 09:54:13 145.665 - 145.685
TIGRISAT 24 Apr 09:53:01 09:57:14 47° 71° (ENE) 10:01:24 435.000
CUBEBUG 2 24 Apr 09:57:03 10:00:48 33° 291° (WNW) 10:04:33 437.445
HO-68 24 Apr 10:03:03 10:09:35 39° 299° (WNW) 10:16:07 435.675
FO-29 24 Apr 10:12:49 10:19:10 67° 72° (ENE) 10:24:49 435.910
UNISAT 6 24 Apr 10:13:11 10:17:36 83° 76° (ENE) 10:21:57 437.425
PCSat 24 Apr 10:21:29 10:24:53 16° 33° (NNE) 10:28:17 145.827
OBJECT BX 24 Apr 10:25:05 10:28:18 28° 96° (E) 10:31:31 145.990 - 145.960
PRISM 24 Apr 10:32:09 10:35:58 35° 262° (W) 10:39:50 437.425
O/OREOS (USA 219) 24 Apr 10:35:34 10:39:14 24° 102° (ESE) 10:42:55 437.305
DELFI C3 24 Apr 10:36:30 10:40:28 54° 100° (E) 10:44:22 145.870
ZACube-1 24 Apr 10:51:54 10:55:21 25° 293° (WNW) 10:58:50 437.345
POLYITAN 1 24 Apr 10:59:53 11:03:07 22° 65° (ENE) 11:06:22 437.675
AO-73 24 Apr 11:00:34 11:03:52 23° 294° (WNW) 11:07:13 145.935
Tancredo 1 24 Apr 11:04:01 11:07:04 52° 338° (NNW) 11:10:07 437.200
ISS 24 Apr 11:04:49 11:08:02 63° 335° (NNW) 11:11:17 437.550
AAUSAT CUBESAT 2 24 Apr 11:04:55 11:06:09 11° 301° (WNW) 11:07:22 437.432
QB50P2 24 Apr 11:05:57 11:09:30 27° 67° (ENE) 11:13:03 145.880/145.840
AIST 2D 24 Apr 11:11:01 11:14:19 42° 73° (ENE) 11:17:38 435.315
Oscar 11 24 Apr 11:19:51 11:22:55 19° 296° (WNW) 11:25:58 .
NANOSAT C BR1 24 Apr 11:30:13 11:34:09 40° 70° (ENE) 11:38:05 145.865
TIGRISAT 24 Apr 11:31:11 11:34:10 18° 268° (W) 11:37:08 435.000
LO-87 24 Apr 11:38:06 11:41:17 28° 96° (E) 11:44:23 145.935 - 145.965
BUGSAT 1 24 Apr 11:40:31 11:43:11 17° 63° (ENE) 11:45:49 437.445
UNISAT 6 24 Apr 11:54:44 11:54:52 10° 272° (W) 11:55:00 437.425
RS-15 24 Apr 11:55:16 12:06:09 34° 342° (NNW) 12:17:04 29.354- 29.394
EO-79 24 Apr 11:55:54 12:00:07 82° 78° (ENE) 12:04:22 145.935-145.965
OBJECT BX 24 Apr 11:59:02 12:01:51 21° 293° (WNW) 12:04:40 145.990 - 145.960
FO-29 24 Apr 12:00:01 12:04:37 21° 268° (W) 12:08:54 435.910
DUCHIFAT 1 24 Apr 12:01:13 12:05:25 78° 75° (ENE) 12:09:37 145.980
PCSat 24 Apr 12:03:54 12:09:21 67° 55° (NE) 12:14:44 145.827
DELFI C3 24 Apr 12:12:30 12:14:49 15° 297° (WNW) 12:17:06 145.870
O/OREOS (USA 219) 24 Apr 12:14:05 12:18:25 40° 301° (WNW) 12:22:47 437.305
Gurwin Techsat 1B 24 Apr 12:15:07 12:16:48 11° 54° (NE) 12:18:29 435.225
ESTCUBE 1 24 Apr 12:17:01 12:21:24 45° 99° (E) 12:25:45 437.505/2401.250
SPROUT 24 Apr 12:29:58 12:32:43 17° 91° (E) 12:35:28 437.525
Oscar 19 24 Apr 12:32:07 12:36:14 25° 62° (ENE) 12:40:21 437.125/150
POLYITAN 1 24 Apr 12:34:45 12:38:41 37° 262° (W) 12:42:38 437.675
Tancredo 1 24 Apr 12:40:47 12:43:27 25° 357° (N) 12:46:06 437.200
QB50P2 24 Apr 12:41:28 12:45:12 30° 264° (W) 12:48:57 145.880/145.840
ISS 24 Apr 12:42:05 12:44:56 27° 355° (N) 12:47:47 437.550
VELOX 1 24 Apr 12:42:26 12:46:05 24° 94° (E) 12:49:41 145.980
AIST 2D 24 Apr 12:46:12 12:47:46 13° 269° (W) 12:49:21 435.315
NANOSAT C BR1 24 Apr 13:06:54 13:10:01 20° 267° (W) 13:13:08 145.865
LO-87 24 Apr 13:11:53 13:14:33 20° 293° (WNW) 13:17:12 145.935 - 145.965
BUGSAT 1 24 Apr 13:14:07 13:18:10 50° 260° (W) 13:22:12 437.445
UKube-1 24 Apr 13:16:22 13:18:52 15° 91° (E) 13:21:20 .
AO-85 24 Apr 13:19:10 13:22:59 32° 118° (ESE) 13:26:38 145.980
AO-7 24 Apr 13:21:40 13:26:58 19° 44° (NE) 13:32:16 .
DUCHIFAT 1 24 Apr 13:41:06 13:41:37 10° 272° (W) 13:42:06 145.980
DX 1 24 Apr 13:42:40 13:46:47 39° 99° (E) 13:50:51 434.975-435.025
PCSat 24 Apr 13:48:21 13:52:12 20° 254° (WSW) 13:56:02 145.827
BEESAT 3 24 Apr 13:50:18 13:51:44 12° 109° (ESE) 13:53:10 437.485
Gurwin Techsat 1B 24 Apr 13:50:30 13:55:47 69° 73° (ENE) 14:01:05 435.225
YUBILEINY 24 Apr 13:51:18 13:55:11 13° 51° (NE) 13:59:03 435.215
ITAMSAT 1 24 Apr 13:53:52 13:56:35 14° 56° (NE) 13:59:18 435.822/435.867
ESTCUBE 1 24 Apr 13:54:29 13:57:55 21° 296° (WNW) 14:01:20 437.505/2401.250
50 SAT 24 Apr 14:02:21 14:05:50 69° 285° (WNW) 14:09:17 437.505
SPROUT 24 Apr 14:04:48 14:08:53 48° 289° (WNW) 14:12:58 437.525
Oscar 19 24 Apr 14:10:16 14:15:15 49° 261° (W) 14:20:17 437.125/150
RS-15 24 Apr 14:12:24 14:23:20 34° 17° (NNE) 14:34:00 29.354- 29.394
Tancredo 1 24 Apr 14:17:00 14:19:55 36° 17° (NNE) 14:22:50 437.200
VELOX 1 24 Apr 14:18:33 14:22:37 36° 291° (WNW) 14:26:38 145.980
ISS 24 Apr 14:18:57 14:21:59 34° 15° (NNE) 14:25:00 437.550
SO-50 24 Apr 14:27:58 14:31:07 18° 34° (NE) 14:34:14 436.795
BEESAT 24 Apr 14:46:01 14:47:48 12° 88° (E) 14:49:35 436.000
UKube-1 24 Apr 14:51:00 14:55:15 57° 288° (WNW) 14:59:28 .
AO-85 24 Apr 14:59:37 15:03:22 31° 315° (NW) 15:06:57 145.980
AO-7 24 Apr 15:10:07 15:18:19 69° 66° (ENE) 15:26:33 .
BEESAT 2 24 Apr 15:18:08 15:21:47 37° 118° (ESE) 15:25:32 435.950
DX 1 24 Apr 15:19:19 15:22:44 23° 296° (WNW) 15:26:08 434.975-435.025
ITUPSAT 1 24 Apr 15:23:03 15:27:08 27° 95° (E) 15:31:11 437.325
BEESAT 3 24 Apr 15:24:46 15:28:43 74° 307° (NW) 15:32:45 437.485
ITAMSAT 1 24 Apr 15:30:05 15:35:18 89° 75° (ENE) 15:40:32 435.822/435.867
Gurwin Techsat 1B 24 Apr 15:32:49 15:36:14 17° 270° (W) 15:39:40 435.225
YUBILEINY 24 Apr 15:45:38 15:54:17 58° 76° (ENE) 16:02:54 435.215
Tancredo 1 24 Apr 15:52:54 15:55:55 47° 215° (SW) 15:58:55 437.200
ISS 24 Apr 15:55:23 15:58:37 59° 213° (SSW) 16:01:49 437.550
SO-50 24 Apr 16:07:39 16:12:11 88° 239° (WSW) 16:16:42 436.795
DOVE 4 24 Apr 16:19:06 16:20:35 11° 56° (NE) 16:22:03 437.250
BEESAT 24 Apr 16:21:24 16:26:11 82° 286° (WNW) 16:30:57 436.000
RS-15 24 Apr 16:26:16 16:38:38 69° 48° (NE) 16:50:24 29.354- 29.394
MOZHAYETS 4 24 Apr 16:36:58 16:41:35 75° 102° (ESE) 16:46:12
BEESAT 2 24 Apr 16:56:13 16:59:39 27° 317° (NW) 17:03:07 435.950
ITUPSAT 1 24 Apr 17:00:38 17:05:01 37° 293° (WNW) 17:09:23 437.325
XW-2D 24 Apr 17:00:50 17:01:35 10° 61° (ENE) 17:02:20 145.860 - 145.880
AO-7 24 Apr 17:04:45 17:11:41 29° 266° (W) 17:18:41 .
BEESAT 3 24 Apr 17:05:00 17:07:01 13° 327° (NNW) 17:09:04 437.485
HO-68 24 Apr 17:05:41 17:06:39 10° 41° (NE) 17:07:37 435.675
XW-2B 24 Apr 17:06:56 17:08:23 12° 62° (ENE) 17:09:51 145.730 - 145.750
KKS-1 24 Apr 17:07:41 17:11:34 28° 96° (E) 17:15:23 437.445
ITAMSAT 1 24 Apr 17:13:25 17:15:28 12° 272° (W) 17:17:32 435.822/435.867
LilacSat-2 24 Apr 17:14:09 17:16:22 15° 64° (ENE) 17:18:37 437.200
XW-2C 24 Apr 17:17:45 17:20:04 16° 64° (ENE) 17:22:23 145.795 - 145.815
CUBESAT XI-V 24 Apr 17:21:21 17:25:48 40° 97° (E) 17:30:13 437.345
KAITUO 1B 24 Apr 17:21:53 17:23:51 14° 63° (ENE) 17:25:50 145.475/437.950
YUBILEINY 24 Apr 17:43:04 17:50:38 34° 276° (W) 17:58:12 435.215
XW-2F 24 Apr 17:44:02 17:47:16 29° 69° (ENE) 17:50:32 145.980 - 146.000
STARS 24 Apr 17:46:19 17:50:14 31° 97° (E) 17:54:08 437.465
SO-50 24 Apr 17:50:41 17:51:55 11° 252° (WSW) 17:53:09 436.795
DOVE 4 24 Apr 17:52:03 17:57:19 67° 73° (ENE) 18:02:32 437.250
CUTE-I 24 Apr 17:59:37 18:04:46 51° 69° (ENE) 18:09:56 437.470
BEESAT 24 Apr 18:01:30 18:03:11 12° 304° (NW) 18:04:51 436.000
NUDT-PHONESAT 24 Apr 18:02:45 18:06:10 38° 71° (ENE) 18:09:36 437.300
